User: anonymous   Login
Location: Unspecified
(0.0000°N, 0.0000°E)
Time: 22:19:00
(UTC+00:00)
Language:

STARLINK-30499 - Orbit

View from above orbital plane
View from above orbital plane
View from above satellite
View from above satellite

Ground track
Ground track

The orbit is defined by the following mean orbital elements,

1 57918U          26145.26887752 +.00000000 +00000-0 -12254-5 0 00006
2 57918  43.0025 107.7426 0001366 271.5809  88.4886 15.27575501    01
Epoch (UTC): 25 May 2026 06:27:11
Eccentricity: 0.0001366
inclination: 43.0025°
perigee height: 482 km
apogee height: 484 km
right ascension of ascending node: 107.7426°
argument of perigee: 271.5809°
revolutions per day: 15.27575501
mean anomaly at epoch: 88.4886°

The dashed part of the orbit path shows where the satellite is in the earth's shadow,  

DLR